Location: L�paud
(46.5881°N, 3.1145°E)
Time: 09:38:34
(UTC+00:00)

Daily predictions for brighter satellites

Satellite Brightness Start Highest point End
(mag) Time Altitude Azimuth Time Altitude Azimuth Time Altitude Azimuth
STARLINK-1096 3.7 20:04:58 10° WNW 20:09:06 73° SSW 20:13:13 10° SE
Okean 3 3.5 20:04:56 10° S 20:09:11 66° E 20:13:28 10° NNE
ASTEX 1 4.5 20:06:19 10° SSW 20:11:02 47° W 20:15:48 10° NNW
STARLINK-1104 4.5 20:07:14 10° WNW 20:11:15 46° NNE 20:15:15 10° E
STARLINK-1230 3.6 20:07:44 10° WSW 20:11:53 89° SSE 20:16:03 10° ENE
STARLINK-1079 3.8 20:09:57 10° WNW 20:14:04 68° SW 20:18:10 10° SE
STARLINK-1144 4.4 20:12:13 10° WNW 20:16:15 48° NNE 20:20:17 10° E
STARLINK-1243 3.7 20:12:44 10° WSW 20:16:53 85° NNW 20:21:03 10° ENE
Cosmos 2221 Rocket 3.6 20:12:33 10° S 20:17:03 74° E 20:21:38 10° NNE
SL-4 R/B 2.2 20:14:14 10° NW 20:17:09 41° WSW 20:19:51 10° S
STARLINK-1116 3.8 20:14:56 10° WNW 20:19:03 63° SW 20:23:08 10° SE
SPOT 5 4.5 20:15:03 10° ESE 20:19:18 26° ENE 20:23:38 10° N
NOSS 8 (F) 4.3 20:16:57 10° SSW 20:20:09 50° SE 20:23:06 10° NE
Meteor 1-13 Rocket 4.3 20:15:11 10° S 20:20:41 61° E 20:26:22 10° NNE
STARLINK-1103 4.3 20:17:11 10° WNW 20:21:15 50° NNE 20:25:17 10° E
STARLINK-1236 3.8 20:17:42 10° WSW 20:21:51 80° NNW 20:26:01 10° ENE
ERS-1 Rocket 4.1 20:20:03 10° SE 20:24:23 30° ENE 20:28:44 10° N
STARLINK-1101 4.3 20:22:10 10° WNW 20:26:14 53° NNE 20:30:18 10° E
STARLINK-1094 4.0 20:24:55 10° WNW 20:28:58 54° SW 20:32:47 11° SE
USA 245 3.1 20:27:56 11° SE 20:30:36 39° ENE 20:33:01 10° N
STARLINK-1102 4.2 20:27:09 10° WNW 20:31:15 56° NNE 20:35:19 10° ESE
STARLINK-1269 3.9 20:27:41 10° WSW 20:31:50 71° NNW 20:35:59 10° ENE
Cosmos 2278 Rocket 3.0 20:27:22 10° SW 20:32:57 58° WNW 20:38:36 10° NNE
TSX-5 4.5 20:27:34 10° SSW 20:33:11 57° ESE 20:37:33 10° NE
STARLINK-1117 4.1 20:29:55 10° WNW 20:33:56 49° SW 20:37:34 12° SE
Resurs 01 Rocket 2.1 20:29:41 10° S 20:34:06 63° W 20:38:32 10° NNW
Okean 1 Rocket 3.8 20:29:57 10° N 20:34:08 38° ENE 20:37:54 12° SE
GPS 2-04 Rocket1 4.4 20:32:27 10° SW 20:34:25 14° S 20:35:57 11° SSE
Cosmos 1741 Rocket 4.0 20:29:24 10° NNW 20:34:40 81° ENE 20:39:48 10° SSE
Okean 2 Rocket 3.4 20:30:31 10° NNW 20:34:55 69° W 20:39:16 10° S
Nadezhda 4 Rocket 4.5 20:29:17 10° SSE 20:34:57 41° E 20:40:37 10° NNE
STARLINK-1111 4.1 20:32:07 10° WNW 20:36:14 59° NNE 20:40:19 10° ESE
STARLINK-1200 4.0 20:32:40 10° WSW 20:36:48 67° NNW 20:40:56 10° ENE
MetOp-B 4.2 20:32:37 10° SSE 20:37:58 86° ENE 20:43:21 10° NNW
Meteor 1-12 Rocket 4.5 20:32:34 10° NNW 20:38:14 74° W 20:43:55 10° S
STARLINK-1078 4.2 20:34:55 10° WNW 20:38:53 46° SW 20:42:21 13° SSE
SL-8 R/B 3.7 20:36:21 10° WNW 20:41:10 86° NNE 20:46:00 10° ESE
STARLINK-1073 4.0 20:37:06 10° WNW 20:41:14 62° NNE 20:45:20 10° ESE
STARLINK-1192 4.1 20:37:41 10° WSW 20:41:48 63° NNW 20:45:56 10° ENE
Cosmos 2279 Rocket 4.1 20:36:42 10° N 20:42:58 82° W 20:49:10 10° S
STARLINK-1108 4.3 20:39:56 10° WNW 20:43:51 42° SW 20:47:08 14° SSE
Cosmos 1850 Rocket 4.1 20:38:52 10° NNW 20:44:15 82° WSW 20:49:25 11° SSE
Cosmos 371 Rocket 3.7 20:40:06 10° SSW 20:44:55 69° WNW 20:49:49 10° NNE
ATLAS 3B CENTAUR R/B 4.3 20:34:17 10° SW 20:45:26 25° S 20:50:57 13° SE
STARLINK-1121 3.9 20:42:05 10° WNW 20:46:13 66° NNE 20:50:08 11° ESE
SL-4 R/B 3.7 20:43:09 10° S 20:46:21 18° SE 20:49:37 10° E
STARLINK-1244 4.3 20:42:41 10° WSW 20:46:47 60° NNW 20:50:54 10° ENE
Cosmos 1110 Rocket 4.2 20:42:09 10° S 20:47:06 48° ESE 20:52:04 10° NNE
Terra 3.0 20:44:22 12° ESE 20:48:02 29° ENE 20:52:08 10° N
STARLINK-1071 4.5 20:44:56 10° WNW 20:48:48 39° SW 20:51:55 15° SSE
Spot 2 Rocket 3.5 20:44:04 10° SSE 20:49:06 87° ENE 20:54:11 10° NNW
Cosmos 2151 Rocket 3.9 20:45:09 10° NNW 20:49:41 70° W 20:54:10 10° S
Abrixas rocket 1.9 20:46:47 10° WNW 20:49:43 70° SSW 20:51:50 17° ESE
SPOT 1/Viking Rocket 3.6 20:45:17 12° SSE 20:50:00 66° ENE 20:55:07 10° N
CARTOSAT-1 4.2 20:47:49 14° SE 20:51:10 42° ENE 20:55:16 10° N
STARLINK-1106 3.8 20:47:05 10° WNW 20:51:13 70° NNE 20:54:56 13° ESE
NOSS 8 (H) 4.1 20:48:08 10° SSW 20:51:18 64° SE 20:54:19 10° NE
STARLINK-1138 4.4 20:47:41 10° WSW 20:51:47 57° NNW 20:55:53 10° ENE
STARLINK-1112 3.7 20:52:01 10° WNW 20:56:11 74° NNE 20:59:42 14° ESE
STARLINK-1143 4.5 20:52:41 10° W 20:56:45 54° NNW 21:00:50 10° ENE
Aureole 2 4.0 20:55:37 10° NNW 20:58:45 78° ENE 21:00:36 21° SSE
STARLINK-1128 3.7 20:57:00 10° WNW 21:01:10 79° NNE 21:04:28 16° ESE
Cosmos 1331 Rocket 4.0 20:58:48 10° S 21:03:51 60° ESE 21:08:58 10° NNE
deb Kosmos-1763 4.0 21:00:53 10° NNW 21:04:29 79° WSW 21:06:57 19° SSE
Aureole 2 Rocket 2.2 21:01:34 10° SSW 21:04:41 75° WNW 21:07:40 10° NNE
STARLINK-1113 3.6 21:01:59 10° WNW 21:06:09 83° NNE 21:09:16 17° ESE
Cosmos 1733 4.2 21:04:03 10° N 21:07:32 32° ENE 21:09:32 20° SE
Cosmos 1437 Rocket 3.4 21:05:56 10° SSW 21:09:38 54° WNW 21:13:25 10° N
STARLINK-1119 3.6 21:07:00 10° WNW 21:11:09 89° NNE 21:14:04 19° ESE
Cosmos 1378 3.3 21:09:41 19° SSE 21:12:09 54° E 21:15:48 10° NNE
ISS -1.6 21:13:32 10° W 21:15:41 16° SW 21:17:02 13° SSW
STARLINK-1114 3.6 21:11:57 10° WNW 21:16:07 86° SSW 21:18:49 21° ESE
Cosmos 1242 Rocket 4.3 21:15:26 17° ESE 21:16:14 18° E 21:18:45 10° NE
Cosmos 304 Rocket 4.0 21:11:33 10° SSW 21:16:19 72° WNW 21:21:08 10° NNE
Lacrosse 5 3.5 21:14:45 10° WNW 21:18:41 23° SW 21:22:07 12° S
Cosmos 1092 Rocket 4.1 21:15:31 16° SSE 21:20:23 57° E 21:26:24 10° NNE
NOSS 2-2 (D) 3.0 21:17:33 10° SW 21:21:05 80° SE 21:25:03 10° NE
STARLINK-1130 (DARKSAT) 3.5 21:16:56 10° WNW 21:21:06 81° SSW 21:23:36 23° SE
CENTAUR R/B 3.7 21:15:41 10° NW 21:23:24 55° NE 21:31:08 13° ESE
Cosmos 1674 Rocket 4.4 21:20:34 10° SSW 21:24:48 49° WNW 21:29:07 10° N
STARLINK-1084 3.6 21:21:56 10° WNW 21:26:05 75° SSW 21:28:23 25° SE
ATLAS 3B R/B 4.1 21:20:23 10° NNW 21:26:20 32° NNE 21:32:26 10° E
Cosmos 1378 Rocket 4.0 21:23:18 10° SSW 21:27:39 60° WNW 21:32:00 10° N
SL-27 R/B 3.3 21:24:32 10° N 21:27:56 38° ENE 21:29:28 25° ESE
NOSS 3-2 (C) 4.4 21:21:24 10° NW 21:28:44 61° NE 21:35:36 16° ESE
Cosmos 1766 3.2 21:26:37 10° N 21:30:37 80° E 21:32:47 26° SSE
STARLINK-1098 3.6 21:26:55 10° WNW 21:31:03 70° SSW 21:33:10 27° SE
STARLINK-1123 3.7 21:31:53 10° WNW 21:36:00 65° SW 21:37:56 29° SE
Cosmos 1943 Rocket 2.1 21:31:47 11° SSW 21:37:08 68° ESE 21:42:41 10° NNE
Cosmos 2297 4.3 21:31:43 10° SW 21:37:20 60° WNW 21:43:01 10° NNE
Cosmos 1900 4.4 21:33:04 10° NW 21:38:07 78° WSW 21:41:01 26° SSE
NOSS 2-2 (E) 3.9 21:34:54 10° SW 21:38:26 56° NW 21:42:31 10° NNE
NOSS 3-4 (A) 4.3 21:36:32 23° SE 21:38:39 28° ESE 21:43:49 10° ENE
NOSS 3-4 (C) 4.3 21:36:40 23° SE 21:38:45 28° ESE 21:43:54 10° ENE
STARLINK-1097 3.7 21:36:54 10° WNW 21:41:00 60° SW 21:42:45 31° SSE
Cosmos 2082 Rocket 4.0 21:38:37 10° NW 21:42:58 23° W 21:47:17 10° SSW
SeaSat 1 3.7 21:40:02 10° NE 21:43:51 22° ESE 21:44:35 21° ESE
STARLINK-1099 3.8 21:41:53 10° WNW 21:45:57 55° SW 21:47:31 33° SSE
Cosmos 1975 Rocket 3.0 21:44:36 25° S 21:47:08 77° E 21:51:33 10° NNE
STARLINK-1212 4.4 21:45:41 10° NW 21:48:34 34° NNE 21:50:46 15° ENE
STARLINK-1105 4.4 21:46:09 10° NW 21:49:01 34° NNE 21:51:13 15° ENE
STARLINK-1247 4.4 21:47:01 10° NW 21:49:56 34° NNE 21:52:06 15° E
STARLINK-1227 4.4 21:47:30 10° NW 21:50:24 34° NNE 21:52:32 15° ENE
BREEZE-M DEB (TANK) 3.8 21:33:26 10° WSW 21:50:31 87° SSE 21:54:39 10° ENE
Cosmos 292 Rocket 4.1 21:48:20 28° SSE 21:50:34 49° ESE 21:55:15 10° NNE
STARLINK-1104 3.9 21:46:53 10° WNW 21:50:54 51° SW 21:52:18 34° SSE
STARLINK-1226 4.3 21:48:22 10° NW 21:51:16 35° NNE 21:53:23 16° E
BREEZE-M DEB (TANK) 3.5 21:47:27 10° W 21:51:38 58° N 21:55:14 10° E
STARLINK-1215 4.3 21:49:15 10° NW 21:52:11 35° NNE 21:54:16 16° E
Cosmos 2369 Rocket 2.2 21:49:04 18° S 21:53:18 66° ESE 21:58:55 10° NNE
STARLINK-1217 4.3 21:51:04 10° NW 21:54:00 36° NNE 21:56:01 17° E
STARLINK-1229 4.3 21:51:59 10° NW 21:54:55 36° NNE 21:56:54 17° E
STARLINK-1270 4.3 21:52:52 10° NW 21:55:49 36° NNE 21:57:46 18° E
STARLINK-1144 4.0 21:51:53 10° WNW 21:55:52 47° SW 21:57:05 35° S
SPOT 5 3.6 21:53:31 20° S 21:57:00 53° W 22:02:15 10° NNW
STARLINK-1189 4.2 21:54:40 10° NW 21:57:37 37° NNE 21:59:29 18° E
STARLINK-1188 4.2 21:55:35 10° NW 21:58:32 38° NNE 22:00:22 19° ENE
Aureole 3 Rocket 4.5 21:52:26 10° N 21:58:40 67° E 22:03:54 25° SSE
ATLAS CENTAUR R/B 2.8 21:59:35 23° ESE 21:59:35 23° ESE 22:02:31 10° ENE
STARLINK-1187 4.0 21:56:40 10° NW 21:59:38 40° NNE 22:01:14 22° E
STARLINK-1103 4.1 21:56:52 10° WNW 22:00:49 43° SW 22:01:51 35° S
STARLINK-1191 4.1 21:58:01 10° NW 22:00:58 38° NNE 22:02:40 20° ENE
STARLINK-1221 4.1 21:58:58 10° NW 22:01:55 39° NNE 22:03:34 21° ENE
STARLINK-1222 4.1 21:59:49 10° NW 22:02:46 39° NNE 22:04:24 21° ENE
ERS-1 Rocket 4.0 21:59:40 17° SSW 22:03:03 39° W 22:07:46 10° NNW
NOSS 2-2 (C) 4.5 21:59:42 10° WSW 22:03:07 42° NW 22:07:02 10° NNE
STARLINK-1214 4.1 22:00:42 10° NW 22:03:40 39° NNE 22:05:15 22° ENE
Cosmos 1025 Rocket 3.7 22:02:58 32° SE 22:04:04 39° E 22:08:04 10° NNE
Okean 2 3.8 22:02:01 22° SSW 22:04:31 61° WNW 22:08:40 10° N
EXPRESS MD2 4.2 22:00:53 10° W 22:04:35 71° N 22:12:12 10° ENE
Cosmos 2026 Rocket 4.0 22:00:23 21° S 22:04:49 90° E 22:11:13 10° N
Thor Agena Rocket 4.0 22:00:07 10° NNE 22:05:12 44° E 22:07:12 31° SSE
STARLINK-1101 4.2 22:01:52 10° WNW 22:05:46 40° SW 22:06:38 35° S
ATLAS 2AS CENTAUR R/B 3.2 22:00:30 17° S 22:06:33 53° ESE 22:14:13 10° NE
Cosmos 1656 Rocket 4.1 22:04:50 30° SSE 22:07:01 43° ESE 22:12:16 10° NE
BREEZE M DEB (TANK) 2.5 22:03:20 10° W 22:07:05 58° NNW 22:08:33 18° ENE
Cosmos 1553 Rocket 4.1 22:02:11 10° N 22:08:28 67° ENE 22:11:43 29° SSE
BREEZE-M DEB (TANK) 4.2 21:54:09 10° WNW 22:09:06 88° SSW 22:11:56 23° ESE
STARLINK-1228 3.7 22:06:08 10° NW 22:09:34 56° NNE 22:11:08 29° E
Cosmos 1953 3.5 22:06:03 10° N 22:09:37 30° ENE 22:10:41 26° ESE
NOSS 3-2 (A) 4.2 22:02:39 10° NW 22:10:09 67° WSW 22:15:11 26° SSE
STARLINK-1102 4.3 22:06:54 10° WNW 22:10:44 37° SW 22:11:26 34° SSW
Cosmos 1470 2.7 22:06:57 10° N 22:10:49 70° E 22:11:51 45° SSE
APEX 4.3 22:06:47 20° SSW 22:11:26 69° ESE 22:16:49 10° NNE
STARLINK-1235 3.6 22:08:51 10° NW 22:12:02 53° NNE 22:13:11 32° E
Cosmos 968 Rocket 3.4 22:10:08 10° NNW 22:15:19 82° ENE 22:17:31 35° SSE
STARLINK-1111 4.4 22:11:55 10° WNW 22:15:40 34° SW 22:16:12 33° SSW
Cosmos 1455 Rocket 3.3 22:13:24 10° NNW 22:17:42 61° W 22:19:25 34° SSW
Cosmos 1655 Rocket 4.3 22:15:02 30° SSE 22:17:56 52° E 22:23:59 10° NNE
SL-4 R/B 3.5 22:20:18 11° NE 22:20:18 11° NE 22:20:39 10° NE
ATLAS 5 CENTAUR R/B 2.1 22:21:46 43° ESE 22:21:46 43° ESE 22:23:57 10° ENE
USA 238 DEB 4.1 22:14:55 10° NW 22:21:57 56° WSW 22:25:51 28° S
USA 238 4.1 22:15:01 10° NW 22:22:03 57° WSW 22:25:58 28° S
SL-8 R/B 4.3 22:19:04 10° W 22:23:29 37° SW 22:24:13 35° SSW
Cosmos 1758 3.2 22:20:15 10° N 22:24:20 86° E 22:25:25 48° SSE
SL-4 R/B 2.3 22:20:43 10° SW 22:25:29 72° SSE 22:30:19 10° ENE
Terra 2.9 22:23:15 22° SSW 22:25:40 36° W 22:30:05 10° NNW
Cosmos 1842 4.2 22:24:08 24° SW 22:26:05 43° WNW 22:29:49 10° N
STARLINK-1234 3.1 22:26:35 10° WNW 22:29:51 73° NNE 22:30:16 61° E
Cosmos 1503 Rocket 4.0 22:30:08 10° NNW 22:35:29 87° ENE 22:37:35 38° SSE
STARLINK-1209 2.9 22:32:45 10° WNW 22:36:03 84° NNE 22:36:13 78° E
Cosmos 2266 Rocket 4.2 22:33:43 33° SSE 22:36:12 52° E 22:42:02 10° NNE
Meteor 2-8 Rocket 4.4 22:35:08 10° N 22:41:19 87° E 22:44:07 35° S
Cosmos 2263 4.3 22:39:18 20° SW 22:43:12 74° WNW 22:48:50 10° NNE
Cosmos 1536 Rocket 3.5 22:45:44 47° SSW 22:46:58 84° W 22:51:21 10° N
Cosmos 1674 3.7 22:48:20 31° E 22:48:24 31° E 22:51:47 10° NNE
Cosmos 1271 Rocket 3.3 22:49:29 36° SW 22:50:40 51° WNW 22:54:32 10° N
Cosmos 1242 Rocket 4.0 22:49:25 24° WSW 22:50:50 33° WNW 22:54:13 10° N
STARLINK-60 3.6 22:52:21 21° W 22:54:14 55° NNW 22:57:23 10° NE
Cosmos 1354 Rocket 4.0 22:49:29 10° NNW 22:54:48 73° WSW 22:56:35 42° S
Spot 4 3.9 22:53:29 43° S 22:55:01 72° WSW 22:59:53 10° NNW
STARLINK-1206 4.5 22:51:09 10° WNW 22:55:11 49° NNE 22:58:21 16° E
COSMOS 2455 2.8 22:52:50 35° S 22:55:22 67° ESE 23:01:21 10° NE
USA 215 3.5 22:52:57 12° ESE 22:59:06 70° NNE 23:05:37 10° NW
Cosmos 1833 4.4 22:53:43 10° NNW 22:59:16 58° WSW 23:01:10 39° S
STARLINK-1205 4.4 22:56:07 10° WNW 23:00:10 51° NNE 23:03:07 17° E
Cosmos 1707 3.4 22:59:44 39° WSW 23:00:43 49° WNW 23:04:32 10° N
Cosmos 2297 Rocket 4.1 22:57:15 10° N 23:01:48 24° NE 23:06:18 10° E
Helios 1A 3.9 23:01:35 32° ESE 23:02:44 39° ENE 23:06:39 10° N
STARLINK-1218 4.3 23:01:06 10° WNW 23:05:11 54° NNE 23:07:55 19° E
Cosmos 1174 3.3 23:06:36 83° NE 23:06:36 83° NE 23:10:13 10° NE
Cosmos 1726 2.1 23:03:20 10° NNW 23:07:02 65° W 23:07:20 62° SW
ALOS 2 2.5 23:07:47 53° SSE 23:08:46 81° ENE 23:13:12 10° NNW
Timation 2 Rocket 4.3 23:03:18 10° NNW 23:09:34 59° ENE 23:12:54 27° SE
STARLINK-1254 4.2 23:06:05 10° WNW 23:10:10 56° NNE 23:12:41 22° E
Cosmos 2058 Rocket 4.4 23:06:40 10° N 23:10:38 31° ENE 23:11:58 26° ESE
COSMOS 2487 2.5 23:07:13 10° NNW 23:10:32 67° W 23:10:32 67° W
CENTAUR R/B 3.5 23:06:31 10° NW 23:14:20 51° WSW 23:18:17 31° S
STARLINK-1231 4.1 23:11:03 10° WNW 23:15:09 59° NNE 23:17:27 24° E
Meteor 2-5 Rocket 4.1 23:14:12 37° SE 23:15:52 48° E 23:21:16 10° NNE
Meteor 1-16 Rocket 4.1 23:10:33 10° NNW 23:16:02 72° W 23:17:49 43° S
Cosmos 1867 3.9 23:12:08 10° NW 23:17:26 52° WSW 23:18:45 42° SSW
ATLAS 3B R/B 2.6 23:10:55 10° NW 23:17:45 82° SW 23:21:09 33° SSE
FALCON 9 DEB 3.8 23:20:07 46° ENE 23:20:07 46° ENE 23:22:40 10° ENE
STARLINK-1232 4.0 23:16:02 10° WNW 23:20:09 63° NNE 23:22:15 27° E
Cosmos 1606 Rocket 3.5 23:16:28 10° N 23:20:49 74° E 23:21:36 57° SE
Cosmos 1943 Rocket 4.2 23:16:56 10° W 23:21:23 24° NW 23:25:55 10° N
SeaSat 1 2.9 23:16:48 10° NNE 23:21:40 59° WNW 23:24:20 26° SW
Cosmos 2098 Rocket 4.3 23:20:07 35° S 23:23:29 81° E 23:31:00 10° N
STARLINK-29 3.4 23:24:02 60° NW 23:24:07 60° NNW 23:27:18 10° NE
STARLINK-1208 3.9 23:20:59 10° WNW 23:25:07 67° NNE 23:27:00 30° E
NOSS 5 (C) 4.4 23:22:24 10° NW 23:25:32 78° WSW 23:25:32 78° WSW
ATLAS CENTAUR R/B 3.3 23:25:57 10° NNW 23:27:46 21° NE 23:30:32 10° E
NOSS 3-4 (A) 3.8 23:23:52 14° SW 23:29:02 61° NW 23:35:24 10° NE
NOSS 3-4 (C) 3.8 23:24:01 14° SW 23:29:08 62° NW 23:35:31 10° NE
STARLINK-1365 4.4 23:31:11 34° E 23:31:11 34° E 23:33:42 10° ENE
RESURS DK-1 2.3 23:29:48 64° SE 23:30:04 66° ESE 23:34:11 10° NNE
STARLINK-1271 3.8 23:26:00 10° WNW 23:30:08 71° NNE 23:31:49 34° ESE
STARLINK-1390 4.4 23:33:34 34° E 23:33:34 34° E 23:36:04 10° ENE
Cosmos 2084 3.5 23:33:36 59° SSE 23:33:59 62° SE 23:38:24 10° NE
Cosmos 2315 Rocket 4.0 23:28:21 10° NNW 23:34:33 77° W 23:36:59 39° S
STARLINK-1154 3.7 23:30:58 10° WNW 23:35:07 75° NNE 23:36:36 39° ESE
BREEZE-M R/B 3.8 23:31:45 27° SSW 23:35:16 51° SSE 23:39:18 10° ENE
Cosmos 1626 2.8 23:36:00 41° E 23:36:01 41° E 23:39:33 10° NNE
Cosmos 1340 Rocket 3.9 23:33:59 10° NNW 23:37:39 33° W 23:38:06 32° WSW
Cosmos 2369 Rocket 4.2 23:33:11 10° WSW 23:37:49 25° NW 23:42:26 10° N
ATLAS CENTAUR R/B 2.3 23:35:43 25° WSW 23:37:52 47° NW 23:41:50 10° NNE
Okean 1-7 Rocket 3.9 23:37:39 47° SE 23:38:25 54° E 23:42:51 10° NNE
Cosmos 2227 Rocket 3.5 23:33:47 10° NNW 23:39:00 36° NE 23:43:29 13° ESE
STARLINK-1197 3.6 23:35:55 10° WNW 23:40:05 80° NNE 23:41:21 43° ESE
Nadezhda 2 Rocket 4.4 23:39:44 40° S 23:42:02 76° E 23:48:11 10° NNE
Cosmos 1908 3.4 23:38:34 10° NNW 23:42:19 56° W 23:42:29 55° WSW
Aureole 3 4.3 23:42:11 10° NNW 23:44:31 27° WNW 23:44:31 27° WNW
STARLINK-1198 3.5 23:40:54 10° WNW 23:45:03 85° NNE 23:46:07 49° ESE
Cosmos 1953 4.0 23:42:44 10° NW 23:45:51 22° W 23:46:22 22° W
STARLINK-1199 3.5 23:45:54 10° WNW 23:50:04 90° E 23:50:56 55° ESE
Landsat 4 3.5 23:47:07 10° NNE 23:50:50 86° ESE 23:51:00 81° SSE
KORONAS-FOTON 4.4 23:52:25 43° W 23:52:52 46° WNW 23:56:36 10° N
STARLINK-1210 3.5 23:50:52 10° WNW 23:55:01 85° SW 23:55:41 62° SE
